Weather Refreshing every minute   No change Green  Reduced Blue  Increased Red  Changed Cyan
DescriptionDate Time (UTC/GMT)Temperature °CDew Point Temperature °CLiquid Freezing temperature °CMax Wind Direction °C Max Wind Speed m/sPrecipitation Total mmRain Intensity mm/hrRain On/OffRain State Relative Humidity %Surface StateSurface Temperature °CWater Layer mmWater Thickness mmWind Direction °D Wind Speed m/s
B1318 Great North Road 05/08/2020 09:30:00 20.2 14.5 0 0 5.1 0 0 Rain detector off No Precipitation 69.8 Moist 0 0 0 225 3.7
B1318 05/08/2020 09:30:00 19.6 14.7 0 0 8.6 0 0 Rain detector off No Precipitation 73.2 Dry 0 0 0 216 4.2
C304 Garesfield 05/08/2020 09:30:00 18.3 15.3 0 228 9.5 0 0 Rain detector off No Precipitation 83 Dry 0 0 0 238 5.3
A1231 Wessington Way 05/08/2020 09:20:00 20.5 15.7 0 16 7.2 0 0 Rain detector off No Precipitation 74 Dry 0 0 0 217 1.6
Burdon Lane 05/08/2020 09:20:00 18.9 14.4 0 0 7.4 0 0 Rain detector off Invalid 75 Dry 0 0 0 259 6.6
A690 Houghton Cut 05/08/2020 09:20:00 18.9 14.8 0 254 8.6 0 0 Rain detector off No Precipitation 77 Dry 0 0 0 192 4.7
A1018 Sunderland Road 05/08/2020 09:30:00 21.3 16 0 320 8.2 0 0 Rain detector off No Precipitation 72 Dry 0 0 0 254 4.3
Hedworth Lane 05/08/2020 09:30:00 20.7 15.6 -0.2 7 6.8 0 0 Rain detector off No Precipitation 72 Dry 0 0 0 193 3.1
A185 Hebburn 05/08/2020 09:30:00 21.1 14.6 0 0 0 0 0 Rain detector off Invalid 66.1 Unavailable 0 0 0 0 0
A1058 Formica 05/08/2020 09:30:00 20.5 15.4 -0.1 257 5.1 0 0 Rain detector off No Precipitation 72 Dry 0 0 0 199 2.4
A1 Berwick-upon-Tweed 05/08/2020 09:30:00 18.5 15 -0.1 42 6.1 0 0 Rain detector off No Precipitation 80 Dry 0 0 0 305 3.7
A1 Haggerston 05/08/2020 09:20:00 19.3 16.1 0 335 3.6 0 0 Rain detector off No Precipitation 82 Dry 0 0 0 288 1.2
A1 Felton 05/08/2020 09:20:00 19.8 16.7 -0.1 11 5.8 0 0 Rain detector off No Precipitation 82 Dry 0 0 0 247 2.6
A1 Rosebrough 05/08/2020 09:20:00 19.1 16 -0.1 289 8.1 0 0 Rain detector off No Precipitation 82 Dry 0 0 0 253 5.7
A1 Stannington 05/08/2020 09:20:00 20.5 15.7 0 342 8 0 0 Rain detector off No Precipitation 74 Dry 0 0 0 227 4.5
A697 Longframlington 05/08/2020 09:30:00 17.7 16.6 -0.9 357 6 0 0 Rain detector off No Precipitation 93 Moist 0 0 0 230 5.8
A698 Norham / B6470 The Salutation 05/08/2020 09:30:00 18.6 14.7 -1.1 254 7.6 0 0 Rain detector off No Precipitation 78 Trace of Chemical 0 0 0 223 5.3
A189 Cramlington 05/08/2020 09:30:00 20.8 15.6 -0.1 302 9.2 0 0 Rain detector off No Precipitation 72 Dry 0 0 0 229 3.8
A69 Mowden Hall 05/08/2020 09:30:00 18.5 15.1 0 274 6.7 0 0 Rain detector off No Precipitation 81 Dry 0 0 0 233 5.1
A696 Raechester 05/08/2020 09:30:00 16.1 15.6 0 0 4.1 0 0 Rain detector off No Precipitation 96 Moist 0 0 0 174 3.9
A1 Metrocentre 05/08/2020 09:20:00 21.2 15.3 -0.1 62 3.6 0 0 Rain detector off No Precipitation 69 Dry 0 0 0 261 1.1
A189 Redheugh Bridge 22/05/2019 10:35:00 0 0 0 216 8.5 0 0 Rain detector off Invalid 0 Invalid 0 0 0 288 3
A68 Tow Law 25/03/2019 14:10:00 9.3 -0.8 0 127 3.9 0 0 Rain detector off No Precipitation 49 Dry 0 0 0 328 1.8
A689 Lanehead 25/03/2019 14:10:00 9 0 0 1 6.5 0 0 Rain detector off No Precipitation 0 Dry 0 0 0 253 4.1
A194(M) Blackfell 25/03/2019 14:00:00 11.6 1.1 0 138 3.2 0 0 Rain detector off No Precipitation 48 Dry 0 0 0 31 1.3
Great Stainton 25/03/2019 14:10:00 9.2 1.6 0 147 5.6 0 0 Rain detector off No Precipitation 59 Dry 0 0 0 30 3.8
A6072 Redworth 25/03/2019 14:10:00 10.5 0 0 220 4.6 0 0 Rain detector off No Precipitation 48 Dry 0 0 0 181 2.8
A1 Coniscliffe 25/03/2019 14:00:00 12.3 -0.3 0 100 2.5 0 0 Rain detector off No Precipitation 42 Dry 0 0 0 301 1
A19 Low Stotfold 25/03/2019 14:10:00 9.5 0.7 0 85 7.5 0 0 Rain detector off No Precipitation 54 Dry 0 0 0 346 5.1
A66 Elton 25/03/2019 14:00:00 10.5 1.2 0 164 4.1 0 0 Rain detector off No Precipitation 53 Dry 0 0 0 17 2.1
A181 Running Waters 25/03/2019 14:10:00 9.9 0.5 0 127 4.4 0 0 Rain detector off No Precipitation 52 Dry 0 0 0 16 1.8
B6277 Forest in Teesdale 25/03/2019 14:10:00 8.8 0.8 0 72 4.3 0 0 Rain detector off No Precipitation 57 Dry 0 0 0 313 1.7
A66 North Bitts 25/03/2019 14:00:00 10.4 0.2 0 86 2.9 0 0 Rain detector off No Precipitation 49 Dry 0 0 0 275 1.3
B6309 Medomsley 25/03/2019 14:10:00 10.4 -1.1 0 95 6 0 0 Rain detector off No Precipitation 45 Dry 0 0 0 333 2.3
A689 Bradbury 25/03/2019 14:00:00 10.4 1.6 0 38 4.8 0 0 Rain detector off No Precipitation 54 Dry 0 0 0 308 2.6
B1432 Hawthorn 25/03/2019 14:10:00 8.6 0.9 0 121 7 0 0 Rain detector off No Precipitation 58 Dry 0 0 0 82 5
B6302 Ushaw Moor 25/03/2019 14:10:00 12 -0.2 0 316 4.4 0 0 Rain detector off No Precipitation 43 Dry 0 0 0 303 1.6
A689 Toronto 25/03/2019 14:10:00 10.7 0.5 0 13 3.8 0 0 Rain detector off No Precipitation 49 Dry 0 0 0 271 1.7
A66 Stainmore 25/03/2019 14:00:00 10.5 0.7 0 304 7.7 0 0 Unavailable Unavailable 59 Dry 0 0 0 250 5